FW4376 Weather Reports


time (UTC)temp
C
wind
direction
speed
KPH
gust
KPH
rain 1hr
cm
rain 24hr
cm
rain mn
cm
humidity
%
barometer
mb
20260510230042 18 106 3.2 9.7 0.15 1.98 1.98 92 1017.0
20260510224543 18 115 1.6 9.7 0.15 1.98 1.98 92 1017.5
20260510223049 18 134 1.6 11.3 0.15 1.98 1.98 91 1017.3
20260510221539 18 302 3.2 9.7 0.13 1.96 1.96 89 1017.5
20260510220039 19 103 1.6 9.7 0.00 1.83 1.83 88 1018.3
20260510214536 19 305 3.2 9.7 0.00 1.83 1.83 86 1017.8
20260510213054 20 115 4.8 11.3 0.03 1.83 1.83 85 1017.6
20260510211539 21 326 4.8 14.5 0.03 1.83 1.83 83 1017.0
20260510210036 21 62 4.8 14.5 0.03 1.83 1.83 84 1016.8
20260510204538 21 143 1.6 9.7 0.03 1.83 1.83 87 1016.6
20260510203034 21 120 0.0 8.0 0.00 1.80 1.80 84 1017.4
20260510201532 21 300 1.6 12.9 0.00 1.80 1.80 86 1017.4
20260510200034 21 29 3.2 9.7 0.00 1.80 1.80 93 1016.9
20260510194532 20 208 3.2 11.3 0.00 1.80 1.80 95 1016.2
20260510193036 20 143 4.8 11.3 0.00 1.80 1.80 95 1016.3
20260510191536 18 146 3.2 9.7 0.00 1.80 1.80 96 1016.5
20260510190041 18 83 3.2 12.9 0.05 1.80 1.80 96 1016.5
20260510184529 17 177 1.6 9.7 0.13 1.80 1.80 96 1016.6
20260510183028 17 73 1.6 8.0 0.56 1.80 1.80 95 1016.6
20260510181527 17 127 3.2 11.3 1.19 1.80 1.80 95 1016.5
20260510180026 16 308 4.8 14.5 1.35 1.75 1.75 95 1016.2
20260510174526 17 252 3.2 12.9 1.24 1.65 1.65 94 1017.1
20260510173025 17 61 4.8 17.7 0.84 1.24 1.24 91 1017.6
20260510171527 19 78 9.7 20.9 0.18 0.58 0.58 83 1016.9
20260510170021 23 82 4.8 17.7 0.00 0.41 0.41 67 1017.2
20260510164517 26 254 1.6 8.0 0.00 0.41 0.41 66 1015.2
20260510163016 27 139 4.8 14.5 0.00 0.41 0.41 65 1014.7
20260510161511 27 127 8.0 17.7 0.00 0.41 0.41 65 1014.0
20260510160012 26 204 4.8 11.3 0.00 0.41 0.41 67 1013.7
20260510154504 25 115 3.2 14.5 0.00 0.41 0.41 68 1013.4
20260510153004 25 202 6.4 17.7 0.00 0.41 0.41 68 1013.2
20260510151559 24 158 3.2 11.3 0.00 0.41 0.41 72 1013.2
20260510150056 23 214 4.8 12.9 0.00 0.41 0.41 76 1012.9
20260510144605 22 236 4.8 12.9 0.00 0.41 0.41 82 1012.8
20260510143054 20 108 4.8 12.9 0.00 0.41 0.41 86 1013.2
20260510141553 20 236 3.2 8.0 0.00 0.41 0.41 86 1014.0
20260510140052 19 245 1.6 11.3 0.00 0.41 0.41 89 1014.5
20260510134552 18 95 1.6 9.7 0.00 0.41 0.41 92 1014.3
20260510133052 18 150 0.0 6.4 0.00 0.41 0.41 94 1014.5
20260510131550 17 172 0.0 4.8 0.00 0.41 0.41 95 1014.3
20260510130049 17 195 0.0 6.4 0.00 0.41 0.41 94 1014.3
20260510124548 17 137 0.0 4.8 0.00 0.41 0.41 94 1014.3
20260510123047 17 150 0.0 3.2 0.00 0.41 0.41 94 1014.1
20260510121545 17 176 0.0 4.8 0.00 0.41 0.41 94 1013.7
20260510120045 17 117 0.0 1.6 0.00 0.41 0.41 94 1014.0
20260510114551 17 155 0.0 1.6 0.00 0.41 0.41 94 1014.0
20260510113044 17 139 0.0 6.4 0.00 0.41 0.41 93 1013.7
20260510111540 17 243 0.0 4.8 0.00 0.41 0.41 93 1013.3
20260510110049 17 99 0.0 6.4 0.23 0.41 0.41 93 1013.1
20260510104539 17 164 1.6 4.8 0.28 0.41 0.41 93 1012.9
20260510103043 17 178 1.6 9.7 0.36 0.41 0.41 93 1012.5
20260510101536 17 116 3.2 16.1 0.41 0.41 0.41 92 1012.2
20260510100046 18 82 1.6 9.7 0.18 0.18 0.18 91 1014.2
20260510094539 18 258 6.4 17.7 0.13 0.13 0.13 89 1013.8
20260510093027 20 89 8.0 17.7 0.05 0.05 0.05 83 1013.7
20260510091526 21 142 4.8 16.1 0.00 0.00 0.00 84 1013.9
20260510090019 22 29 3.2 6.4 0.00 0.00 0.00 92 1013.0
20260510084515 22 129 1.6 6.4 0.00 0.00 0.00 92 1012.2
20260510083013 22 92 1.6 4.8 0.00 0.00 0.00 92 1012.0
20260510081510 22 27 0.0 4.8 0.00 0.00 0.00 91 1011.7
20260510080032 22 112 0.0 3.2 0.00 0.00 0.00 91 1010.8
20260510074507 23 120 0.0 6.4 0.00 0.00 0.00 90 1010.6
20260510073005 23 237 3.2 9.7 0.00 0.00 0.00 89 1009.9
20260510071503 23 89 0.0 4.8 0.00 0.00 0.00 88 1010.9
20260510070003 23 84 1.6 4.8 0.00 0.00 0.00 88 1011.7
20260510064502 23 184 0.0 3.2 0.00 0.00 0.00 88 1011.5
20260510063001 23 340 0.0 1.6 0.00 0.00 0.00 87 1011.3
20260510061557 23 109 0.0 3.2 0.00 0.00 0.00 87 1010.6
20260510060058 23 122 1.6 6.4 0.00 0.00 0.00 87 1009.7
20260510054554 23 122 1.6 9.7 0.00 0.00 0.00 87 1009.7
20260510053058 23 113 3.2 9.7 0.00 0.00 0.00 87 1009.6
20260510051604 23 105 3.2 6.4 0.00 0.00 0.00 87 1009.5
20260510050059 23 158 1.6 8.0 0.00 0.00 0.00 87 1009.3
20260510044549 23 132 1.6 6.4 0.00 0.00 0.00 87 1008.8
20260510043049 23 115 1.6 8.0 0.00 0.00 0.00 85 1008.8
20260510041547 23 255 1.6 9.7 0.00 0.00 0.00 84 1009.2
20260510040048 23 121 1.6 6.4 0.00 0.00 0.00 82 1009.1
20260510034547 24 160 0.0 6.4 0.00 0.00 0.00 79 1008.9
20260510033054 24 118 0.0 4.8 0.00 0.00 0.00 77 1009.1
20260510031549 24 114 0.0 4.8 0.00 0.00 0.00 76 1009.1
20260510030045 24 120 0.0 3.2 0.00 0.00 0.00 76 1009.1
20260510024545 24 126 0.0 3.2 0.00 0.00 0.00 75 1009.1
20260510023045 25 109 0.0 1.6 0.00 0.00 0.00 74 1009.1
20260510021635 25 203 0.0 1.6 0.00 0.00 0.00 73 1008.9
20260510020044 25 117 0.0 3.2 0.00 0.00 0.00 71 1008.8
20260510014553 26 122 0.0 1.6 0.00 0.00 0.00 68 1008.7
20260510013053 27 169 0.0 4.8 0.00 0.00 0.00 67 1008.4
20260510011542 27 120 0.0 3.2 0.00 0.00 0.00 65 1008.3
20260510010050 27 120 0.0 4.8 0.00 0.00 0.00 63 1008.1
20260510004541 28 128 0.0 3.2 0.00 0.00 0.00 61 1008.0
20260510003041 28 141 0.0 3.2 0.00 0.00 0.00 59 1008.0
20260510001540 29 122 0.0 4.8 0.00 0.00 0.00 57 1008.1
20260510000039 29 300 0.0 3.2 0.00 0.00 0.00 56 1007.9
20260509234538 30 129 0.0 4.8 0.00 0.00 0.00 54 1007.8
20260509233037 30 99 1.6 4.8 0.00 0.00 0.00 53 1007.9
20260509231537 30 351 0.0 3.2 0.00 0.00 0.00 52 1007.9